• Join FlightAware (Why Join?)
  • Login
  • US Flag 
08:40AM EST


 

Airport Tracker/Info


-or-


 

Live Flight TrackerFlight Track Log ✈ SKW4664 ✈ 09-Jun-2013 ✈ KFSD - KMSP

Flight Track Log - Related Links

Times and Time Zones

All times are in EDT time to prevent confusion due to time zone crossing. See the SKW4664 flight status page for this flight to view local times or setup timezone preferences in your user account.

Time Position Orientation Groundspeed Altitude Reporting Facility
EDT Latitude Longitude Course Direction KTS MPH feet Rate Location/Type
12:11PM 43.6567 -96.7664 349° North 181 208 5,000  Level Minneapolis Center
12:12PM 43.6989 -96.7097 44° Northeast 204 235 7,100 2,032 Climbing Minneapolis Center
12:13PM 43.7425 -96.6272 54° Northeast 236 272 9,200 1,902 Climbing Minneapolis Center
12:14PM 43.7878 -96.5336 56° Northeast 265 305 11,000 1,854 Climbing Minneapolis Center
12:16PM 43.9615 -96.0363 52° Northeast  Level FlightAware Approximate
12:16PM 43.8375 -96.4322 56° Northeast 294 338 13,000  Level Minneapolis Center
12:17PM 43.8886 -96.3286 56° Northeast 319 367 14,700 2,081 Climbing Minneapolis Center
12:18PM 43.9500 -96.2039 56° Northeast 328 377 17,300 1,984 Climbing Minneapolis Center
12:19PM 44.0031 -96.0967 55° Northeast 339 390 18,800 1,306 Climbing Minneapolis Center
12:20PM 44.0572 -95.9842 56° Northeast 355 409 20,000 1,113 Climbing Minneapolis Center
12:21PM 44.1131 -95.8708 56° Northeast 361 415 21,100 1,016 Climbing Minneapolis Center
12:22PM 44.1703 -95.7522 56° Northeast 370 426 22,100 919 Climbing Minneapolis Center
12:23PM 44.2406 -95.6083 56° Northeast 376 433 23,000 435 Climbing Minneapolis Center
12:24PM 44.3019 -95.4792 56° Northeast 395 455 23,000  Level Minneapolis Center
12:25PM 44.3622 -95.3525 56° Northeast 395 455 23,000  Level Minneapolis Center
12:26PM 44.4217 -95.2269 56° Northeast 390 449 23,000  Level Minneapolis Center
12:27PM 44.4756 -95.0981 60° Northeast 386 444 23,000  Level Minneapolis Center
12:28PM 44.5147 -94.9269 72° East 386 444 23,000 -48 Level Minneapolis Center
12:29PM 44.5497 -94.7850 71° East 386 444 22,900 -1,306 Descending Minneapolis Center
12:30PM 44.5842 -94.6403 71° East 390 449 20,300 -2,613 Descending Minneapolis Center
12:31PM 44.6128 -94.5086 73° East 387 445 17,500 -2,855 Descending Minneapolis Center
12:32PM 44.6511 -94.3458 72° East 365 420 14,400 -2,661 Descending Minneapolis Center
12:33PM 44.6806 -94.2183 72° East 346 398 12,000 -1,742 Descending Minneapolis Center
12:34PM 44.7072 -94.0967 73° East 326 375 10,800 -1,065 Descending Minneapolis Center
12:35PM 44.7314 -93.9886 72° East 292 336 9,800 -1,016 Descending Minneapolis Center
12:36PM 44.7886 -93.9114 44° Northeast 289 333 8,700 -919 Descending Minneapolis Center
12:37PM 44.8450 -93.8472 39° Northeast 261 300 7,900 -829 Descending Minneapolis Center
12:38PM 44.9000 -93.7833 39° Northeast 257 296 7,000 -732 Descending Minneapolis Center
12:39PM 44.9603 -93.7003 44° Northeast 255 293 6,400 -484 Descending Minneapolis Center
12:40PM 45.0031 -93.6286 50° Northeast 240 276 6,000 -194 Descending Minneapolis Center
12:41PM 45.0039 -93.5408 89° East 219 252 6,000 -339 Level Minneapolis Center
12:42PM 44.9878 -93.4669 107° East 198 228 5,300 -1,065 Descending Minneapolis Center
12:43PM 44.9628 -93.4064 120° Southeast 180 207 3,800 -1,161 Descending Minneapolis Center
12:44PM 44.9403 -93.3558 122° Southeast 156 180 2,900 -823 Descending Minneapolis Center
12:45PM 44.9183 -93.3056 122° Southeast 126 145 2,100 -726 Descending Minneapolis Center
12:46PM 44.9000 -93.2628 121° Southeast 127 146 1,400 -677 Descending Minneapolis Center
12:48PM 44.8820 -93.2218 114° Southeast  Level Estimated
12:55PM 44.8820 -93.2218 114° Southeast  Level Estimated